Wind_Speed
7 14 14 16 21 27 28 27 26 28 28 27 24 23 23 21 19 26 25 26 23 24 21 19 17 15 14 12 11 12 12 12 12 12 16 14 14 15 16 17 17 12 10
7 8 13 16 20 23 27 26 27 29 29 29 29 27 26 22 21 21 22 25 27 26 23 19 18 19 18 16 15 13 13 12 12 7 12 2 5 8 5 6 3 3 6
11 8 12 20 22 24 26 26 29 32 31 30 29 25 20 20 22 25 24 24 27 27 27 24 22 22 19 17 13 13 13 14 9 11 7 2 3 3 3 2 3 7 9
7 7 9 16 23 27 29 29 27 29 33 31 31 30 24 20 29 31 29 25 24 25 28 26 26 25 19 18 18 17 14 16 13 16 17 19 17 3 3 3 5 6 9
9 10 10 21 28 28 28 28 27 25 24 26 28 29 28 29 28 26 31 30 25 22 23 23 22 23 18 15 14 17 17 16 14 15 16 17 19 16 10 5 5 7 8
10 9 18 21 21 28 27 26 24 24 24 26 24 27 29 27 25 24 22 23 22 22 21 17 14 13 14 13 16 19 16 17 14 15 16 16 9 4 8 4 5 6 9
11 9 8 10 19 21 26 24 23 24 24 25 23 24 26 26 26 26 23 22 22 17 13 11 12 12 11 10 12 13 15 16 13 11 15 16 17 18 17 13 8 4 8
8 8 9 15 20 23 27 25 24 24 22 20 21 22 22 24 23 22 21 19 21 18 15 12 4 9 7 8 9 10 14 13 13 12 13 13 13 13 14 17 12 3 3
7 9 10 18 23 22 24 25 24 21 18 17 15 15 14 17 18 18 16 16 18 17 13 11 9 10 12 9 9 10 11 14 15 14 14 13 14 14 15 17 16 11 4
6 4 3 11 20 23 21 18 20 19 16 14 13 13 12 13 13 14 15 16 16 14 13 11 10 9 10 11 11 11 12 14 13 13 13 13 14 14 14 14 15 16 11
4 4 3 2 8 12 15 15 16 16 16 15 13 12 12 13 14 14 16 16 14 12 11 10 9 8 10 10 10 10 11 13 12 13 13 13 13 12 12 13 12 12 10
2 2 3 4 6 8 9 11 12 14 14 15 14 14 14 15 17 18 18 17 18 15 9 6 7 7 9 10 9 9 10 11 10 11 12 12 11 11 10 12 12 11 9
3 0 1 2 2 4 9 13 15 16 16 17 18 17 17 17 17 17 18 17 14 9 9 8 7 6 8 9 9 10 10 11 11 10 11 10 12 12 12 13 12 11 11
1 2 3 3 4 5 8 11 14 15 17 19 19 19 19 18 17 16 14 13 11 9 6 7 7 7 8 9 10 10 10 10 11 10 9 8 10 13 13 14 14 12 12
5 6 6 6 7 7 8 10 14 17 19 21 21 20 18 17 16 16 12 10 9 7 5 5 6 8 8 8 8 10 11 9 9 8 9 10 10 12 14 13 13 11 11
7 8 7 6 9 11 11 12 16 20 22 24 22 20 19 19 18 15 13 11 10 7 6 7 9 8 7 7 8 9 9 9 9 8 8 8 8 8 9 10 10 10 10
8 8 8 8 15 16 16 18 19 19 22 22 22 21 21 19 18 16 14 13 10 8 8 8 7 7 7 6 8 8 8 9 9 8 8 7 6 5 6 6 5 8 9
7 6 5 8 11 14 17 20 18 20 23 24 23 21 21 20 18 17 16 13 10 9 8 8 8 7 6 6 5 7 8 9 9 8 7 7 6 5 7 6 5 4 4
3 7 9 11 13 14 16 18 19 20 22 23 23 22 22 21 20 19 16 14 12 11 10 8 7 7 7 7 7 8 9 8 8 7 8 8 8 7 7 7 5 4 3
4 8 11 14 15 18 15 18 22 23 26 27 26 23 22 22 22 20 18 16 13 9 7 8 8 8 9 9 8 9 8 9 8 8 8 8 8 7 7 8 8 7 6
5 6 8 10 13 12 11 19 22 27 28 25 24 22 23 23 21 20 18 14 10 7 8 10 10 11 11 11 9 10 10 10 10 10 11 9 8 7 7 9 10 9 7
5 6 6 8 10 8 11 18 23 22 21 21 21 21 21 21 20 19 16 13 11 8 8 11 12 12 12 13 11 11 12 9 11 12 12 11 10 9 8 9 7 9 8
4 5 6 9 12 6 5 11 12 13 17 18 20 20 20 20 19 18 17 15 12 10 12 13 15 15 14 14 14 12 13 13 13 12 11 11 11 12 10 9 10 9 13
4 5 5 9 13 12 4 2 9 13 17 18 18 18 19 18 16 15 15 14 13 13 15 14 16 17 15 14 15 16 15 14 14 14 12 11 11 13 14 12 10 11 13
4 7 8 9 10 11 12 9 9 12 15 14 15 16 16 16 15 14 14 15 14 14 14 15 16 16 16 16 15 16 18 17 16 15 14 11 12 14 14 13 13 14 15
4 8 8 10 10 11 12 10 8 7 10 11 12 13 13 13 13 14 13 12 13 12 12 13 15 14 15 13 11 12 15 16 15 15 16 15 17 18 18 18 18 18 18
Wind_Direction
244 240 224 216 213 210 212 210 212 211 209 200 199 203 204 213 222 222 218 216 218 221 220 225 224 218 212 221 233 247 258 263 274 284 284 296 296 293 286 285 291 269 258
250 244 231 222 218 213 214 214 216 218 214 214 212 212 214 218 225 223 218 221 226 226 220 219 217 211 206 208 218 234 248 259 275 264 308 329 311 274 299 312 314 213 202
229 221 221 223 225 223 223 223 219 218 217 216 218 220 221 226 227 229 227 224 222 223 221 219 217 215 215 222 213 226 233 236 246 264 261 309 244 306 265 264 185 172 182
227 236 227 222 222 227 227 226 227 230 226 221 222 223 220 220 234 232 231 224 221 226 229 232 228 225 225 239 240 240 241 253 252 270 271 269 264 230 294 225 210 199 196
216 222 226 228 229 231 231 233 235 236 235 234 231 231 231 235 241 242 236 234 227 222 226 226 219 219 229 232 248 267 266 252 252 255 266 266 277 273 237 262 204 209 213
239 225 226 236 235 229 228 233 236 240 239 238 237 236 238 240 245 243 233 229 221 215 211 212 222 213 212 231 249 263 269 265 266 273 266 259 251 262 247 234 220 203 214
224 220 219 211 226 225 218 222 229 232 233 235 235 237 243 246 245 245 236 225 210 195 189 195 210 220 227 243 261 273 274 275 269 267 276 274 266 268 271 268 251 202 207
210 206 215 217 225 229 220 219 222 228 225 226 231 237 240 246 249 246 234 226 207 190 174 180 194 257 240 231 256 270 278 283 286 279 271 275 276 276 273 261 272 246 186
187 210 220 222 224 224 222 221 220 220 216 223 227 233 238 243 239 233 223 209 193 186 190 206 205 249 266 270 265 272 280 283 282 277 273 278 279 274 268 268 266 269 254
53 23 253 234 229 228 226 216 211 207 207 210 218 219 218 220 216 206 194 187 185 187 189 200 210 229 251 263 268 273 276 276 275 273 270 273 278 279 277 269 264 260 266
51 54 49 227 210 218 218 197 199 201 200 202 205 203 194 189 188 187 181 177 175 180 189 196 208 234 248 260 272 277 278 272 273 269 273 279 278 271 268 267 262 261 258
65 32 66 98 169 184 185 196 197 199 198 193 190 183 179 176 177 175 171 172 171 173 191 224 223 235 254 254 263 268 278 280 284 285 280 270 271 274 269 263 259 259 261
114 74 336 85 142 194 201 208 208 206 198 189 183 178 177 176 178 179 177 178 174 176 187 211 240 264 268 280 283 278 291 292 287 281 279 282 275 271 268 270 269 267 258
146 289 290 254 231 227 223 216 214 210 200 194 189 184 184 185 185 185 184 183 183 199 222 235 262 263 268 277 284 303 297 290 283 283 280 275 285 278 275 282 272 261 249
247 228 239 246 224 227 227 220 218 211 202 195 194 194 194 195 197 196 208 217 210 200 206 229 241 255 268 281 304 318 292 283 274 280 278 277 278 271 276 270 262 244 229
268 258 254 261 252 233 230 222 217 210 205 201 202 204 202 196 197 206 206 200 197 187 206 224 240 253 275 300 324 308 288 270 265 269 270 270 267 271 272 265 248 235 226
259 254 248 245 252 249 240 231 221 209 205 205 205 201 202 205 200 193 193 196 196 200 213 229 250 263 276 294 309 294 282 267 263 258 254 254 264 256 234 234 222 212 216
257 269 274 279 275 268 254 242 223 211 208 207 207 205 200 194 189 189 195 200 206 217 232 243 245 251 279 280 277 273 282 268 253 248 242 248 250 242 239 243 228 245 237
269 272 284 283 281 277 266 241 217 207 204 204 202 200 198 193 191 194 198 206 214 221 230 235 243 261 258 253 251 265 271 259 251 242 238 245 250 244 247 247 237 221 187
295 299 299 293 284 278 264 231 209 199 205 207 204 201 202 200 197 200 201 208 216 223 236 244 248 252 259 254 255 259 263 249 247 247 249 249 248 242 231 245 230 213 192
310 315 307 289 289 286 245 213 207 205 210 206 203 200 202 204 203 201 204 210 216 221 267 248 245 251 252 255 252 239 248 245 248 249 250 245 243 235 232 246 242 228 224
339 358 353 345 331 310 216 206 206 214 208 199 198 200 201 202 203 204 201 203 208 221 247 253 256 255 255 253 252 235 241 250 252 255 260 257 243 231 233 235 245 230 221
360 359 9 5 14 9 217 201 205 203 191 187 191 194 194 197 202 202 197 196 204 229 241 246 254 263 260 256 250 241 238 240 255 265 264 261 248 233 235 235 240 222 224
25 31 53 38 28 34 65 193 173 176 181 178 180 185 189 192 195 201 207 209 212 229 240 247 255 265 267 259 251 243 239 238 243 255 259 254 248 236 238 233 228 226 229
38 63 73 66 52 59 71 94 130 154 161 170 173 179 187 193 195 206 212 220 239 247 252 255 259 262 266 265 260 249 240 239 239 246 249 246 232 231 234 237 236 233 233
48 71 74 78 70 75 76 79 98 138 156 161 173 182 187 195 202 207 218 235 249 253 256 257 260 263 264 266 258 247 246 243 239 229 238 241 238 238 238 240 244 243 240
Height
769 769 772 776 779 780 783 787 791 791 795 798 802 806 807 810 814 816 818 820 822 825 828 831 833 835 836 838 840 841 842 843 843 844 842 843 844 843 841 840 839 839 839
769 768 772 775 776 777 779 783 785 789 791 793 796 800 803 806 811 813 813 816 819 822 825 827 830 832 832 833 834 836 839 839 841 842 841 840 842 841 840 839 837 838 839
764 765 767 769 770 773 776 778 780 783 787 790 793 796 799 802 806 809 810 812 814 817 820 823 826 828 829 832 830 832 832 834 834 840 842 842 844 841 838 839 839 837 839
760 760 762 764 766 768 770 772 776 780 783 786 790 793 795 798 800 802 806 809 810 813 815 818 821 824 826 829 831 832 831 832 829 835 838 839 838 840 840 838 838 838 837
756 757 759 760 762 765 767 771 774 777 781 785 788 791 793 795 797 799 801 805 808 810 812 815 817 820 823 827 832 832 831 830 828 831 832 834 835 835 836 836 837 837 836
748 751 754 757 760 762 765 769 773 775 779 783 785 787 790 792 795 797 799 801 805 807 809 813 816 818 821 823 826 831 830 828 825 827 830 830 832 831 831 833 832 831 834
744 747 751 755 756 759 763 767 771 773 776 780 781 785 787 790 792 794 794 797 801 805 808 812 816 818 820 822 824 827 829 829 825 822 827 828 828 829 830 830 829 829 830
742 744 746 749 751 754 757 762 766 769 772 776 778 781 783 787 789 791 792 794 799 802 804 808 813 823 816 815 819 821 828 827 825 822 824 824 825 827 827 828 828 827 828
741 745 745 745 747 752 755 758 762 766 769 773 777 778 780 783 785 788 789 792 798 801 802 807 809 814 817 815 815 820 820 824 824 823 822 821 822 824 824 824 825 825 822
741 742 741 742 745 748 753 757 763 766 769 772 775 776 779 782 784 785 788 792 796 799 801 805 807 812 814 814 815 816 819 821 820 821 819 819 820 821 821 821 821 822 819
743 744 743 745 747 750 753 756 761 764 766 769 772 774 777 780 783 786 788 790 795 800 803 804 805 808 811 813 814 814 816 817 817 817 817 816 818 817 818 819 818 819 819
748 748 747 747 749 751 753 757 760 763 765 768 771 774 777 780 784 785 788 791 791 794 800 805 805 806 810 810 810 812 814 815 813 814 814 815 815 816 814 817 816 817 817
752 751 750 750 750 752 753 755 758 761 764 768 770 774 777 781 785 789 790 792 792 795 796 801 806 804 808 810 809 810 809 810 811 810 812 811 814 812 813 813 813 814 815
752 754 754 753 752 752 753 755 759 761 763 767 771 773 777 781 785 789 792 793 792 793 796 800 801 805 807 808 809 806 806 807 809 809 809 810 811 812 811 812 811 810 813
751 752 752 751 751 752 753 754 758 761 762 764 769 772 776 780 784 788 791 792 793 794 793 797 801 805 806 807 805 803 806 806 808 806 808 809 807 809 810 809 809 809 809
749 747 748 748 749 750 752 754 756 758 762 763 766 771 776 780 782 786 789 791 793 791 794 797 802 803 803 804 802 805 804 805 805 805 806 806 807 806 807 808 806 808 807
747 746 745 744 745 747 749 751 754 757 759 762 766 770 774 778 781 783 787 790 791 792 795 798 799 801 803 803 803 803 803 804 803 804 805 806 805 805 806 808 806 806 805
745 745 744 743 744 745 746 748 751 753 756 760 764 768 771 775 778 781 786 789 790 792 794 796 798 799 800 801 802 802 802 803 803 802 803 804 804 805 807 807 805 806 805
745 745 744 742 741 741 741 743 745 748 753 756 760 764 768 771 776 780 783 787 790 791 793 795 796 797 799 800 801 800 801 800 800 800 802 803 804 806 806 805 806 806 805
744 743 741 739 738 736 737 739 740 744 748 752 757 762 766 771 774 778 782 786 789 790 791 793 795 796 797 799 799 798 798 798 798 799 800 802 804 805 806 805 806 805 806
742 741 739 737 735 734 734 734 737 740 743 750 755 759 764 769 773 777 781 784 786 788 791 792 794 795 795 796 796 797 796 796 797 798 800 801 803 803 805 805 805 805 805
741 739 738 736 733 731 731 732 734 738 743 749 753 757 762 767 772 775 777 781 783 786 789 790 791 792 792 793 793 794 795 795 796 796 798 800 801 802 803 803 803 805 804
741 739 737 735 733 731 732 733 735 739 743 747 751 756 761 765 769 773 775 777 780 783 786 787 788 788 788 789 790 791 793 793 794 794 796 797 799 800 801 801 802 803 803
742 739 737 737 736 733 732 733 734 738 743 747 751 756 760 764 766 770 773 776 778 780 782 783 783 784 785 785 786 787 789 790 791 792 794 795 797 798 798 799 801 801 801
743 741 740 740 739 738 737 737 738 740 743 748 752 755 759 762 765 768 771 773 775 777 778 778 780 781 781 781 782 784 785 786 788 790 791 793 794 795 796 797 798 799 799
744 743 743 742 742 742 741 742 743 744 746 749 752 755 758 761 764 767 770 771 772 773 774 776 777 777 777 778 779 780 781 782 784 786 787 789 791 792 792 793 794 795 796